軌道要素
Epoch 2022 Jan. 21.0 TT = JDT 2459600.5
T 2021 Oct. 5.19014 TT Rudenko
q 1.7772197 (2000.0) P Q
n 0.12971548 Peri. 139.59126 -0.44914622 -0.89072235
a 3.8649290 Node 336.83794 +0.76709421 -0.34434930
e 0.5401676 Incl. 10.23159 +0.45807656 -0.29671071
P 7.60
From 1577 observations 1983 Sept. 18-2022 Jan. 31, mean residual 0".7.
Nongravitational parameters A1 = -0.14, A2 = +0.0084.
|